Location: Azul
(36.7830°S, 59.8500°W)
Time: 10:21:27
(UTC-03:00)

NOAA 19 - Pass Details

Date: 23 October 2021
Orbit: 840 x 861 km, 99.2° (Epoch: 07 December)

Event Time Altitude Azimuth Distance (km) Brightness Sun altitude
Rises 20:08:11 0° 162° (SSE) 3,471 8.4 -9.3°
Reaches altitude 10° 20:10:38 10° 157° (SSE) 2,528 7.7 -9.7°
Maximum altitude 20:16:09 55° 79° (E) 1,038 5.3 -10.7°
Drops below altitude 10° 20:21:35 10° 1° (N) 2,495 7.4 -11.7°
Sets 20:23:59 0° 357° (N) 3,422 8.1 -12.2°
